H2SAT (HEINRICH HERTZ)

Last updated on Wed Sep 09 2026 00:03:03 GMT+0000 (Coordinated Universal Time)

1 57213U 23093A 26250.03657810 -.00000016 00000+0 00000+0 0 9996 2 57213 0.0498 351.2583 0000685 151.2586 217.4844 1.00272736 11746
UTC large
Height (km)
Speed (km/s)
/
Latitude / Longitude
Inclination (degrees)
Orbital Period (minutes)
Azimuth
Elevation
Range (km)
Doppler Factor

Next 0 passes for location: London (51.5072 / 0.1276)

No passes found over London.
H2SAT (HEINRICH HERTZ)